Terug naar catalogus

CZ-4C R/B

ActiefSSO
NORAD 53699·ROCKET BODY·🇨🇳 China

Gelanceerd Sep 2, 2022 vanaf Jiuquan Satellite Launch Center

Loading…

Volgende Passages (komende 24 uur)

TLE

VersSource: Space-Track

Epoch: Sep 14, 2026, 05:55 UTC

1 53699U 22106B   26257.24693576  .00002591  00000-0  17293-3 0  9999
2 53699  98.0469 343.8593 0107310 212.0118 147.4559 15.03404560220302

Volg CZ-4C R/B in realtime met AllMySat

Download on the App Store